星链-32191 (STARLINK-32191)

导读

STARLINK-32191是美国太空探索技术公司SpaceX星链卫星网络中的一员,于2024年7月28日由美国发射升空。它作为低地球轨道通信卫星,加入星链星座,为全球提供高速互联网覆盖服务,进一步拓展了星链网络的规模,增强了全球卫星互联网的通信能力与覆盖范围。

Basic Information
目录编号:
60314
目录名称:
STARLINK-32191
国际标识:
2024-133P
轨道中心:
EARTH
卫星名称:
星链-32191 (STARLINK-32191)
卫星全名:
星链-32191 (STARLINK-32191)
卫星状态:
在轨 (已飞行776 天)
发射日期:
2024-07-28 UTC
国别 :
美国 (US)
星等 :
--
This satellite is enrolled in the Space Conjunction Data Service (SCDS) and the current flight risk assessment level is: No High Risk
Orbit Information
数据来源 国际轨道数据
星历时间: 2026-09-11T18:13:53+0800
15小时前
查看轨道信息
半长轴: 6840.903km
偏心率: 0.0001398
轨道倾角: 53.160°
近地点辐角 93.572°
升交点赤经 152.472°
平近点角 266.545°
近地点: 461.809km
远地点: 463.723km
周期: 93.849分钟
每日圈数: 15.343789
Detailed Information
卫星平台:
Starlink v2.0 mini
运营商:
太空探索技术公司
运营商所在国:
美国
制造商(研发单位):
太空探索技术公司
制造商所在国:
美国
使用方式:
暂无
Satellite Introduction
星链(Starlink)计划是由太空探索技术公司(SpaceX)提出的一个巨型低轨卫星互联网星座项目,计划在2019年至2024年间在太空搭建由约1.2万颗卫星组成的“星链”网络,其中1584颗将部署在地球上空550千米处的近地轨道,并从2020年开始工作。该卫星仍在工作。
2D Orbit Map
3D Orbit Map
Orbit Altitude Analysis Chart
Orbit Inclination Analysis Chart
Orbit Comprehensive Analysis Chart
View Comprehensive Chart
Conjunction Data List
Event ID Objects TCA Miss Dist (km) Collision Risk Probability Collision Risk Index (CRI) Action
CDM_260914-071806-031406-620621
2026-09-14T
07:18:31+0000
0.566 km
远距离
9.447582E-5 中风险 0.75
CDM_260913-224806-031406-919821
2026-09-13T
22:48:46+0000
0.554 km
远距离
2.452992E-5 中风险 0.63
CDM_260913-180305-939706-031421
2026-09-13T
18:03:40+0000
0.818 km
远距离
2.291877E-5 中风险 0.62
CDM_260912-082705-939706-031421
2026-09-12T
08:27:04+0000
1.024 km
极远距离
1.071307E-5 中风险 0.56
CDM_260912-135505-939706-031421
2026-09-12T
13:55:20+0000
1.094 km
极远距离
8.514169E-6 低风险 0.54
CDM_260913-233506-031406-919821
2026-09-13T
23:35:40+0000
0.785 km
远距离
7.833894E-6 低风险 0.53
CDM_260914-010505-939706-031421
2026-09-14T
01:05:46+0000
1.147 km
极远距离
7.238756E-6 低风险 0.52
CDM_260914-102606-031406-621721
2026-09-14T
10:26:19+0000
1.423 km
极远距离
4.66962E-6 低风险 0.48
CDM_260913-193705-939706-031421
2026-09-13T
19:37:28+0000
1.348 km
极远距离
4.202621E-6 低风险 0.47
CDM_260914-054406-031406-620621
2026-09-14T
05:44:44+0000
1.496 km
极远距离
4.046264E-6 低风险 0.47
Miss Distance Evolution Trend with All Objects
Collision Probability Evolution Trend with All Objects